CAPE
3 1 2 4 5 5 2 6 11 2 4 6 5 5 3 2 2 3 2 1 0 0 0 0 2 7 1 0 0 0 0 0 0 0 0 0 16 3 0 1 0 1 0 0 0 0 0
4 3 3 4 4 5 2 6 3 1 6 6 7 5 2 2 0 1 0 0 0 0 0 0 0 0 0 0 0 0 0 0 0 0 0 0 1 0 1 12 11 0 3 0 0 0 0
1 4 6 6 9 9 5 3 3 6 6 5 4 4 2 0 1 0 0 0 0 0 0 0 0 0 0 0 0 0 0 0 0 0 0 0 0 0 0 0 1 5 14 0 0 1 5
1 5 4 3 11 2 2 3 5 4 5 3 3 4 5 3 1 0 0 0 0 0 0 0 0 0 0 0 0 0 0 0 0 0 0 0 0 0 0 0 1 1 2 3 0 0 2
1 1 2 12 7 3 3 4 4 4 4 3 3 3 2 1 1 0 0 0 0 0 0 0 0 0 0 0 0 0 0 0 0 0 0 0 0 0 0 0 2 1 0 0 0 0 0
4 10 8 2 5 5 5 3 3 2 3 1 2 1 1 0 0 0 0 0 0 0 0 0 0 0 0 0 0 0 0 0 0 0 0 0 0 0 0 5 0 0 0 0 0 1 7
13 3 3 4 4 4 3 3 2 2 2 3 0 0 0 0 0 0 0 0 0 0 0 0 0 0 0 0 0 0 0 0 0 0 0 0 0 0 0 0 1 0 0 0 0 0 0
1 2 3 1 3 3 5 4 5 2 1 1 1 0 0 0 0 0 0 0 2 0 0 0 0 0 0 0 0 0 0 0 0 0 0 0 0 0 0 0 0 0 0 0 0 0 0
2 1 2 5 3 2 5 3 2 1 0 1 1 0 0 0 0 0 0 0 0 0 0 0 0 0 0 0 0 0 0 0 0 0 0 0 0 0 0 0 0 0 0 0 0 0 0
0 1 1 2 1 4 4 2 2 0 0 1 0 0 0 0 0 0 0 0 0 0 0 0 0 0 0 0 0 0 0 0 0 0 0 0 0 0 0 0 0 0 0 0 0 0 0
1 1 1 2 4 6 1 2 2 1 0 1 0 0 0 0 0 0 0 0 0 0 0 0 0 0 0 0 0 0 0 0 0 0 0 0 0 0 0 0 0 0 0 0 0 0 0
0 1 0 2 5 1 1 0 0 1 0 0 0 0 0 0 0 0 0 0 0 0 0 0 0 0 0 0 0 0 0 0 4 0 0 0 0 0 0 0 0 0 0 0 2 0 0
0 0 9 4 1 1 1 2 1 0 0 0 0 0 0 0 0 0 0 0 0 0 0 0 0 0 0 0 0 0 0 0 0 0 0 0 0 0 0 0 0 0 0 2 0 0 0
0 4 3 1 1 1 5 1 0 0 0 0 0 0 0 0 0 0 0 0 0 0 0 0 0 0 0 0 0 0 0 0 0 0 0 0 0 0 0 0 0 0 0 0 4 0 0
2 0 1 1 1 6 2 5 5 1 0 0 0 0 0 0 0 0 0 0 0 0 0 0 0 0 0 0 0 0 0 0 0 0 3 0 0 0 0 0 0 0 0 0 0 0 0
0 0 0 1 6 0 5 7 6 0 0 0 0 0 0 0 0 0 0 0 0 0 0 0 0 0 0 0 0 0 0 0 0 0 0 0 0 0 0 0 0 0 0 0 0 0 0
0 0 0 2 0 6 4 8 2 1 0 0 0 0 0 0 0 0 0 0 0 0 0 0 0 0 0 0 0 0 0 0 0 0 0 0 0 0 0 0 0 0 0 0 0 0 0
0 0 1 0 4 0 5 5 2 1 0 0 0 0 0 0 0 0 0 0 0 0 0 0 0 0 0 0 0 0 0 0 0 0 0 0 0 0 0 0 0 0 0 0 0 0 0
0 0 0 1 2 5 1 0 1 1 0 0 0 0 0 0 0 0 0 0 0 0 0 0 0 0 0 0 0 0 0 0 0 0 0 0 0 0 0 0 0 0 0 0 0 0 0
0 0 0 1 5 4 0 0 1 4 0 0 0 0 0 0 0 0 0 0 0 0 0 0 0 0 0 0 0 0 0 0 0 0 0 0 0 0 0 0 0 0 0 0 0 0 0
0 0 0 0 3 2 2 1 1 6 0 0 0 0 0 0 0 0 0 0 0 1 0 0 0 0 0 0 0 0 0 0 0 0 0 0 0 0 0 0 0 0 0 0 0 0 0
0 0 1 0 3 2 2 1 3 7 0 0 0 0 0 0 0 0 0 0 0 0 0 0 0 0 0 0 0 0 0 0 0 0 0 0 0 0 0 0 0 0 0 0 0 0 0
0 0 0 1 1 1 0 2 5 12 2 0 0 0 1 0 0 0 0 0 0 0 0 0 0 0 0 0 0 0 0 0 0 0 0 0 0 0 0 0 0 0 0 0 0 0 0
0 0 0 1 1 0 1 2 7 6 2 1 9 11 1 0 0 0 0 0 0 0 0 0 0 0 0 0 0 0 0 0 0 0 0 0 0 0 0 0 0 0 0 0 0 0 0
0 0 0 0 0 0 1 1 3 6 18 3 1 9 2 0 0 0 0 0 0 0 0 0 0 0 0 0 0 0 0 0 0 0 0 0 0 0 0 0 0 0 0 0 0 0 0
0 0 0 1 0 1 1 1 4 9 9 4 2 1 6 0 0 0 0 0 0 0 0 0 0 0 0 0 0 0 0 0 0 0 0 0 0 0 0 0 0 0 0 0 0 0 0
0 0 2 1 2 1 1 0 3 10 12 4 2 0 0 0 0 0 0 0 0 0 0 0 0 0 0 0 0 0 0 0 0 0 0 0 0 0 0 0 0 0 0 0 0 0 0
0 0 3 0 1 2 3 1 4 8 9 7 0 0 0 0 0 0 0 0 0 0 0 0 0 0 0 0 0 0 0 0 0 0 0 0 0 0 0 0 0 0 0 0 0 0 0
0 1 0 2 1 2 3 1 6 8 8 3 0 0 0 0 0 0 0 0 0 0 2 0 0 0 0 0 0 0 0 0 0 0 0 0 0 0 0 0 0 0 0 0 0 0 0
CIN
-0 -1 -0 -0 -1 -0 -0 -0 -0 -1 -0 -1 -0 -0 -1 -1 -1 -1 -1 -1 -0 -0 -0 -0 -0 -0 -1 -0 -0 -0 -0 -0 -0 -0 -0 -0 -1 -0 -0 -1 -0 -1 -0 -0 -0 -0 -0
-1 -0 -0 -0 -0 -0 -0 -0 -1 -0 -0 -0 -0 -1 -0 -1 -0 -1 -0 -0 -0 -0 -0 -0 -0 -0 -0 -0 -0 -0 -0 -0 -0 -0 -0 -0 -1 -0 -2 -0 -1 -0 -2 -0 -0 -0 -0
-0 -1 -0 -2 -0 -1 -0 -0 -1 -0 -0 -1 -0 -0 -0 -0 -1 -0 -0 -0 -0 -0 -0 -0 -0 -0 -0 -0 -0 -0 -0 -0 -0 -0 -0 -0 -0 -0 -0 -0 -0 -4 -0 -0 -0 -3 -1
-0 -0 -0 -1 -0 -0 -0 -1 -0 -0 -1 -0 -0 -0 -1 -1 -1 -0 -0 -0 -0 -0 -0 -0 -0 -0 -0 -0 -0 -0 -0 -0 -0 -0 -0 -0 -0 -0 -0 -0 -0 -0 -0 -0 -0 -0 -0
-0 -0 -1 -1 -0 -0 -1 -0 -0 -1 -0 -1 -0 -1 -1 -0 -0 -0 -0 -0 -0 -0 -0 -0 -0 -0 -0 -0 -0 -0 -0 -0 -0 -0 -0 -0 -0 -0 -0 -0 -0 -0 -0 -0 -0 -0 -0
-1 -1 -0 -0 -0 -1 -1 -0 -1 -0 -0 -0 -0 -0 -0 -0 -0 -0 -0 -0 -0 -0 -0 -0 -0 -0 -0 -0 -0 -0 -0 -0 -0 -0 -0 -0 -0 -0 -0 -1 -0 -0 -0 -0 -0 -0 -17
-1 -1 -0 -0 -0 -0 -1 -1 -0 -1 -1 -1 -0 -0 -0 -0 -0 -0 -0 -0 -0 -0 -0 -0 -0 -0 -0 -0 -0 -0 -0 -0 -0 -0 -0 -0 -0 -0 -0 -0 -1 -0 -0 -0 -0 -0 -0
-0 -1 -0 -1 -0 -0 -0 -1 -1 -1 -1 -1 -0 -0 -0 -0 -0 -0 -0 -0 -0 -0 -0 -0 -0 -0 -0 -0 -0 -0 -0 -0 -0 -0 -0 -0 -0 -0 -0 -0 -0 -0 -0 -0 -0 -0 -0
-0 -0 -0 -0 -0 -1 -1 -0 -1 -0 -0 -0 -0 -0 -0 -0 -0 -0 -0 -0 -0 -0 -0 -0 -0 -0 -0 -0 -0 -0 -0 -0 -0 -0 -0 -0 -0 -0 -0 -0 -0 -0 -0 -0 -0 -0 -0
-0 -0 -1 -0 -0 -1 -0 -0 -1 -0 -0 -0 -0 -0 -0 -0 -0 -0 -0 -0 -0 -0 -0 -0 -0 -0 -0 -0 -0 -0 -0 -0 -0 -0 -0 -0 -0 -0 -0 -0 -0 -0 -0 -0 -0 -0 -0
-0 -0 -0 -1 -0 -0 -0 -1 -0 -0 -0 -1 -0 -0 -0 -0 -0 -0 -0 -0 -0 -0 -0 -0 -0 -0 -0 -0 -0 -0 -0 -0 -0 -0 -0 -0 -0 -0 -0 -0 -0 -0 -0 -0 -0 -0 -0
-0 -0 -0 -0 -0 -0 -1 -0 -0 -0 -0 -0 -0 -0 -0 -0 -0 -0 -0 -0 -0 -0 -0 -0 -0 -0 -0 -0 -0 -0 -0 -0 -32 -0 -0 -0 -0 -0 -0 -1 -0 -0 -0 -0 -1 -0 -0
-0 -0 -0 -0 -0 -0 -0 -0 -1 -0 -0 -0 -0 -0 -0 -0 -0 -0 -0 -0 -0 -0 -0 -0 -0 -0 -0 -0 -0 -0 -0 -0 -0 -0 -0 -0 -0 -0 -0 -0 -0 -0 -0 -7 -0 -0 -0
-0 -0 -0 -0 -0 -0 -0 -0 -0 -0 -0 -0 -0 -0 -0 -0 -0 -0 -0 -0 -0 -0 -0 -0 -0 -0 -0 -0 -0 -0 -0 -0 -0 -0 -0 -0 -0 -0 -0 -0 -0 -0 -0 -1 -4 -1 -0
-0 -0 -0 -0 -0 -1 -0 -0 -0 -0 -0 -0 -0 -0 -0 -0 -0 -0 -0 -0 -0 -0 -0 -0 -0 -0 -0 -0 -0 -0 -0 -0 -0 -0 -4 -0 -0 -0 -0 -0 -0 -0 -0 -0 -0 -0 -0
-0 -0 -0 -0 -0 -0 -0 -0 -0 -0 -0 -0 -0 -0 -0 -0 -0 -0 -0 -0 -0 -0 -0 -0 -0 -0 -0 -0 -0 -0 -0 -0 -0 -0 -0 -0 -0 -0 -0 -0 -0 -0 -0 -0 -0 -0 -0
-0 -0 -0 -0 -0 -0 -0 -0 -0 -1 -0 -0 -0 -0 -0 -0 -0 -0 -0 -0 -0 -0 -0 -0 -0 -0 -0 -3 -0 -0 -0 -0 -0 -0 -0 -0 -0 -0 -0 -0 -0 -0 -0 -0 -0 -0 -0
-0 -0 -0 -0 -0 -0 -0 -1 -0 -1 -0 -0 -0 -0 -0 -0 -0 -0 -0 -0 -0 -0 -0 -0 -0 -0 -0 -0 -0 -0 -0 -0 -0 -0 -0 -0 -0 -0 -0 -0 -0 -0 -0 -0 -0 -0 -0
-0 -0 -0 -0 -0 -0 -0 -1 -0 -0 -0 -0 -0 -0 -0 -0 -0 -0 -0 -0 -0 -0 -0 -0 -0 -0 -0 -0 -2 -0 -0 -0 -0 -0 -0 -0 -0 -0 -0 -0 -0 -0 -0 -0 -0 -0 -0
-0 -0 -0 -0 -0 -1 -0 -1 -0 -0 -0 -0 -0 -0 -0 -0 -0 -0 -0 -0 -0 -0 -0 -0 -0 -1 -0 -0 -0 -0 -0 -0 -0 -0 -0 -0 -0 -0 -0 -0 -0 -0 -0 -0 -0 -0 -0
-0 -0 -0 -0 -0 -0 -0 -0 -0 -0 -0 -0 -0 -0 -0 -0 -0 -0 -0 -0 -0 -0 -0 -0 -0 -0 -0 -0 -0 -0 -0 -0 -0 -0 -0 -0 -0 -0 -0 -0 -0 -0 -0 -0 -0 -0 -0
-0 -0 -0 -0 -0 -0 -0 -0 -0 -0 -0 -0 -0 -0 -0 -0 -0 -0 -0 -0 -0 -0 -0 -0 -0 -0 -0 -0 -0 -0 -0 -0 -0 -0 -0 -0 -0 -0 -0 -0 -0 -0 -0 -0 -0 -0 -0
-0 -0 -0 -0 -0 -0 -0 -0 -0 -0 -2 -1 -4 -0 -6 -0 -0 -0 -0 -0 -0 -0 -0 -0 -0 -0 -0 -0 -0 -0 -0 -0 -0 -0 -0 -0 -0 -0 -0 -0 -0 -0 -0 -0 -0 -0 -0
-0 -0 -0 -0 -0 -0 -0 -0 -0 -0 -6 -5 -8 -4 -2 -0 -0 -0 -0 -0 -0 -0 -0 -0 -0 -0 -0 -0 -0 -0 -0 -0 -0 -0 -0 -0 -0 -0 -0 -0 -0 -0 -0 -0 -0 -0 -0
-0 -0 -0 -0 -0 -0 -0 -0 -0 -0 -0 -6 -13 -1 -3 -0 -0 -0 -0 -0 -0 -0 -0 -0 -0 -0 -0 -0 -0 -0 -0 -0 -0 -0 -0 -0 -0 -0 -0 -0 -0 -0 -0 -0 -0 -0 -0
-0 -0 -0 -0 -0 -0 -0 -0 -0 -0 -1 -9 -11 -6 -2 -0 -0 -0 -0 -0 -0 -0 -0 -0 -0 -0 -0 -0 -0 -0 -0 -0 -0 -0 -0 -0 -0 -0 -0 -0 -0 -0 -0 -0 -0 -0 -0
-0 -0 -0 -0 -0 -0 -0 -0 -0 -0 -0 -7 -7 -0 -5 -1 -0 -0 -0 -0 -0 -0 -0 -0 -0 -0 -0 -0 -0 -0 -0 -0 -0 -0 -0 -0 -0 -0 -0 -0 -0 -0 -0 -0 -0 -0 -0
-0 -0 -0 -0 -0 -0 -0 -0 -0 -0 -0 -5 -4 -0 -0 -0 -0 -0 -0 -0 -0 -0 -0 -0 -0 -0 -0 -0 -0 -0 -0 -0 -0 -0 -0 -0 -0 -0 -0 -0 -0 -0 -0 -0 -0 -0 -0
-0 -0 -0 -0 -1 -0 -0 -0 -0 -0 -0 -10 -4 -0 -0 -0 -0 -0 -0 -0 -0 -0 -2 -0 -0 -0 -0 -0 -0 -0 -0 -0 -0 -0 -0 -0 -0 -0 -0 -0 -0 -0 -0 -0 -0 -0 -0
Wind_Speed
23 25 26 26 27 28 30 33 33 34 36 37 38 38 39 40 41 42 42 41 40 40 39 36 32 29 27 31 28 29 39 37 33 34 31 32 31 32 40 38 38 45 48 43 43 48 45
23 24 26 27 27 29 32 32 33 35 36 37 39 39 40 42 43 43 43 42 43 44 41 34 29 25 27 36 25 31 37 37 36 36 34 33 34 36 46 47 46 41 48 57 53 50 42
23 25 25 26 28 30 30 33 35 35 36 38 40 41 42 44 44 44 44 43 43 40 42 30 25 26 28 31 28 36 37 39 35 37 38 35 35 36 38 46 41 52 61 60 58 47 49
23 24 25 27 28 30 32 34 34 36 37 39 41 42 43 44 46 46 43 44 44 38 42 28 22 26 33 28 32 41 40 40 39 33 38 36 35 42 42 42 48 49 50 63 59 55 46
23 24 25 26 29 30 32 33 36 37 39 40 42 43 44 45 46 45 43 44 40 29 35 28 30 28 35 31 42 39 40 44 37 38 37 31 36 41 44 53 61 52 66 63 62 45 42
23 24 25 27 28 30 32 34 36 37 39 41 43 44 45 47 46 43 45 38 36 29 37 28 32 32 37 43 42 38 39 41 38 41 40 40 36 42 44 48 68 69 69 64 63 49 45
22 25 26 27 28 30 32 34 36 38 39 42 44 45 46 45 44 42 45 35 42 37 41 38 35 33 40 39 38 42 41 41 38 40 43 38 42 47 47 46 51 53 58 62 68 59 49
22 23 25 27 28 30 31 34 36 38 40 43 44 45 45 42 38 39 39 42 40 33 43 35 32 31 39 38 44 44 40 41 41 44 39 38 41 36 41 44 49 55 59 60 58 56 55
22 23 25 26 28 30 32 35 37 39 41 43 45 46 43 39 31 37 39 40 34 30 39 35 36 35 47 41 41 46 42 37 35 37 38 37 37 38 43 45 47 52 53 53 55 51 59
22 23 24 25 28 30 32 34 36 39 41 43 45 45 41 39 32 37 38 40 35 26 42 42 41 35 44 40 36 35 35 30 30 34 35 32 35 44 46 42 40 47 44 48 49 51 63
21 22 24 25 27 29 32 34 36 39 41 44 45 43 38 35 34 39 40 39 29 28 59 45 41 35 41 36 37 33 33 30 31 33 32 37 44 46 43 34 33 36 40 44 45 51 54
20 21 23 24 26 29 31 34 36 40 42 44 44 38 35 36 36 36 39 32 28 46 57 45 47 50 45 40 39 31 34 29 25 31 32 41 37 28 29 30 35 39 35 37 37 44 62
19 20 23 25 27 29 31 34 38 40 42 43 42 35 35 34 42 39 36 31 47 56 45 49 52 47 42 39 37 34 38 36 33 38 43 45 32 29 24 35 31 29 33 27 35 42 52
18 21 23 25 27 29 30 35 37 39 41 43 38 32 34 36 40 38 35 40 58 47 47 43 44 42 38 39 36 33 36 33 30 30 39 35 36 30 25 28 36 34 22 21 27 30 38
19 21 23 25 26 28 30 33 37 40 40 42 33 31 37 40 38 37 38 55 48 45 41 43 42 41 38 36 35 32 33 27 28 28 36 34 26 29 16 20 14 22 18 23 25 32 30
19 20 22 24 26 28 29 33 36 39 40 42 31 28 38 39 34 38 44 47 39 35 37 37 42 36 41 39 38 35 31 26 30 26 10 9 22 13 15 11 6 12 16 17 21 22 26
18 19 21 24 25 27 30 32 35 38 40 38 30 30 34 37 31 40 48 42 36 31 34 35 36 35 35 38 35 32 27 24 20 19 14 17 11 14 11 7 8 5 9 15 22 25 23
17 19 21 23 25 27 29 32 35 38 40 34 30 33 31 34 42 38 44 39 32 33 30 30 27 30 33 37 33 29 28 17 13 19 14 10 11 15 12 8 10 9 6 11 19 21 19
16 19 20 22 25 26 29 32 34 37 37 31 32 29 27 33 42 44 38 35 30 33 33 30 29 26 28 33 34 26 24 9 14 12 8 9 10 10 7 8 6 5 11 13 18 22 15
16 18 20 22 24 25 28 31 34 36 36 29 31 35 32 31 33 38 40 36 36 29 28 26 25 24 31 31 30 22 20 6 16 7 14 11 10 10 10 10 11 9 13 15 5 15 10
15 16 19 21 23 25 27 30 33 34 33 27 32 32 31 37 37 36 35 33 36 37 26 24 26 27 31 31 31 26 16 22 13 6 13 11 9 10 13 12 7 9 10 11 12 4 6
14 16 19 20 23 24 26 29 30 31 29 29 31 33 30 31 32 35 35 33 33 32 28 26 27 27 23 25 23 21 11 18 12 12 11 12 9 12 8 9 8 7 10 3 14 15 3
13 16 18 20 22 23 25 27 28 29 28 28 28 26 29 31 33 36 34 34 32 30 24 19 23 24 24 20 16 12 5 17 15 11 13 13 11 8 9 8 7 5 13 5 3 15 6
13 16 18 20 21 22 24 26 27 27 25 26 26 27 31 35 33 34 32 30 30 27 24 21 21 22 17 14 14 12 11 17 14 12 10 15 12 10 12 9 12 7 14 6 3 10 17
13 15 17 19 21 22 23 25 26 25 25 25 24 26 29 34 31 32 32 31 28 24 23 20 20 17 14 16 21 20 19 20 17 15 16 14 11 11 10 10 13 6 18 12 8 9 19
12 14 17 19 20 21 22 23 24 25 25 24 24 21 24 31 30 29 31 28 29 27 24 20 22 20 21 20 22 23 22 21 18 19 17 14 12 9 10 11 11 9 23 17 11 9 19
12 14 16 18 19 21 21 22 23 25 25 23 23 20 22 28 25 26 29 28 23 25 22 20 26 25 25 25 22 20 17 15 20 20 19 16 13 10 9 13 11 16 21 14 4 13 22
12 14 16 18 19 21 21 22 23 24 24 23 23 20 20 26 26 22 22 23 22 21 22 20 23 24 23 25 20 18 15 15 21 21 20 18 16 14 13 12 13 22 13 11 17 20 23
13 14 16 18 19 20 21 22 24 24 24 22 24 20 19 21 24 21 19 14 12 11 15 17 18 22 20 21 18 15 14 12 17 21 19 20 17 19 17 18 21 22 16 18 19 19 18
Wind_Direction
13 4 4 4 5 7 4 2 2 1 357 355 356 354 353 352 349 347 345 346 345 342 340 338 338 338 339 333 326 333 330 328 328 324 314 301 289 285 276 280 273 268 270 274 273 269 269
6 3 357 2 5 4 0 5 5 1 359 358 355 355 354 350 348 348 347 346 344 341 341 341 345 349 340 327 338 334 332 328 324 319 310 304 293 288 284 276 271 277 278 270 270 269 272
3 358 360 2 1 4 8 5 2 4 2 356 354 353 351 349 348 348 347 346 345 344 345 348 349 344 336 329 335 334 331 328 325 319 309 303 297 287 287 282 282 277 272 272 267 269 264
1 359 358 360 3 7 5 2 4 2 360 357 354 353 353 350 348 348 349 346 345 346 344 349 344 343 332 342 338 334 332 327 326 324 315 307 298 286 279 282 280 277 274 267 267 263 264
1 358 356 2 3 5 4 4 1 1 358 356 355 354 352 350 349 350 350 348 349 354 353 358 351 343 335 341 337 336 337 327 326 326 322 317 306 288 283 276 273 270 267 266 267 264 262
1 2 1 0 6 6 6 4 2 359 359 358 354 353 352 349 350 353 352 355 356 4 357 354 357 342 344 337 337 338 341 337 329 326 320 315 306 294 287 276 268 268 265 266 264 265 259
5 358 1 6 7 8 8 5 3 1 0 357 354 353 352 353 354 357 356 358 357 350 358 352 346 347 341 339 343 342 343 338 334 329 320 318 304 295 289 282 278 274 269 267 263 264 267
8 7 7 7 10 9 9 6 3 1 360 357 355 354 354 355 358 3 3 1 358 352 348 355 351 345 345 342 336 344 347 339 335 328 328 320 308 306 301 290 281 274 271 268 269 265 260
8 8 10 11 10 9 7 4 3 1 360 356 355 355 357 358 3 3 3 2 1 1 348 353 358 350 349 347 341 342 347 343 339 336 334 325 316 310 304 295 285 275 269 268 266 266 261
8 11 12 14 12 10 8 5 4 2 360 358 357 356 359 1 5 1 0 359 358 4 349 350 353 353 350 349 348 351 355 353 349 342 339 334 327 311 301 298 293 278 274 268 267 261 253
12 12 14 14 14 12 9 7 4 2 360 358 357 359 3 9 3 0 356 356 5 7 342 350 352 353 352 356 351 359 0 358 349 345 343 332 321 312 302 299 300 290 283 270 263 259 256
17 18 18 17 15 11 9 7 5 1 359 358 359 3 9 8 6 2 359 6 12 354 347 351 351 350 352 355 355 358 0 3 357 348 345 335 330 334 319 305 302 295 291 271 260 259 251
20 20 18 17 14 12 10 7 1 360 359 360 0 8 11 10 1 1 4 8 356 353 354 352 352 354 356 359 359 1 358 357 357 351 341 334 343 332 324 303 311 303 295 273 253 255 253
23 19 17 16 14 13 12 6 3 2 1 2 4 12 11 10 6 7 11 6 355 356 357 355 357 358 3 3 1 1 358 358 3 2 349 347 300 308 286 299 305 290 295 271 260 263 259
19 16 16 15 14 13 13 9 4 3 3 2 6 12 11 7 10 14 12 2 1 1 0 0 1 5 6 5 3 2 0 2 5 8 354 346 280 290 253 298 283 315 309 277 277 274 275
20 20 19 17 16 15 13 9 6 4 3 3 11 11 10 9 15 17 12 8 8 11 6 8 7 11 4 6 5 4 8 13 5 15 24 354 272 261 279 277 216 269 234 281 264 272 269
22 20 19 17 17 16 12 10 7 4 3 7 14 10 11 11 20 15 10 10 11 13 13 12 10 9 8 9 7 8 12 7 27 303 284 278 189 262 274 232 244 289 221 247 242 252 271
22 21 18 18 16 15 14 10 7 5 5 13 12 8 13 15 12 13 9 9 12 12 15 15 16 15 13 8 13 17 15 19 300 297 290 259 228 278 264 240 190 299 227 226 216 227 231
22 18 19 18 15 18 14 9 8 6 8 12 11 10 16 18 6 8 9 10 12 10 11 16 15 20 17 13 16 17 22 321 303 294 277 265 247 272 233 179 179 307 308 304 193 186 211
19 19 19 18 18 18 13 10 8 7 10 17 11 7 9 15 13 9 6 8 8 11 10 15 11 16 13 16 20 19 25 301 304 283 303 283 221 191 195 229 262 327 337 354 175 182 222
20 21 18 19 17 16 14 10 8 9 13 18 13 10 11 3 6 6 7 7 5 7 14 16 17 14 11 15 19 27 26 306 290 276 301 289 216 250 259 234 242 326 345 10 28 78 158
20 19 16 16 12 15 14 11 10 12 16 17 11 9 8 3 5 5 7 6 5 6 9 11 9 8 14 17 20 5 318 291 264 291 293 289 248 275 212 227 253 359 357 12 16 16 57
15 14 14 12 11 13 12 10 10 12 16 13 13 12 8 4 5 4 5 4 1 4 12 13 11 9 12 19 5 331 290 254 235 260 297 292 279 237 203 249 227 159 359 343 359 17 44
11 10 10 9 10 11 10 10 9 11 15 13 12 10 5 0 2 1 1 2 1 5 4 8 14 15 19 355 8 43 69 272 252 259 263 296 291 229 221 240 170 192 330 329 205 12 2
4 6 7 7 8 9 8 9 9 10 9 10 12 8 4 358 1 1 4 2 3 6 10 14 17 15 13 25 32 40 48 314 283 276 296 303 281 235 226 211 205 240 329 300 231 183 353
2 3 3 4 6 7 7 7 7 6 7 9 8 12 7 360 3 4 1 6 5 7 11 17 12 20 26 28 32 32 37 18 303 279 285 288 287 268 241 216 202 280 320 306 219 176 339
357 359 360 3 4 5 5 5 5 4 5 7 7 13 7 359 4 6 2 3 11 8 8 14 12 15 22 22 28 36 46 60 312 285 273 272 277 265 257 229 237 312 323 300 261 264 310
353 356 358 1 2 2 2 3 2 2 4 6 5 9 6 359 356 4 6 4 6 11 8 13 15 13 14 16 29 37 46 49 298 283 270 262 261 256 259 246 238 316 293 328 285 291 302
350 353 356 358 360 360 1 0 359 0 2 6 1 9 10 360 355 1 0 358 7 15 17 21 17 9 15 14 23 35 31 43 345 290 277 260 276 259 264 260 281 289 254 302 297 291 290